SCP
0 0 0 0 0 0 0 0 0 0 0 0 0 0 0 0 0 0 0 0 0 0 0 0 0 0 0 0 0 0 0 0 0 0 0 0 0 0 0 0 0 0 0 0 0 0 0 0 0
0 0 0 0 0 0 0 0 0 0 0 0 0 0 0 0 0 0 0 0 0 0 0 0 0 0 0 0 0 0 0 0 0 0 0 0 0 0 0 0 0 0 0 0 0 0 0 0 0
0 0 0 0 0 0 0 0 0 0 0 0 0 0 0 0 0 0 0 0 0 0 0 0 0 0 0 0 0 0 0 0 0 0 0 0 0 0 0 0 0 0 0 0 0 0 0 0 0
0 0 0 0 0 0 0 0 0 0 0 0 0 0 0 0 0 0 0 0 0 0 0 0 0 0 0 0 0 0 0 0 0 0 0 0 0 0 0 0 0 0 0 0 0 0 0 0 0
0 0 0 0 0 0 0 0 0 0 0 0 0 0 0 0 0 0 0 0 0 0 0 0 0 0 0 0 0 0 0 0 0 0 0 0 0 0 0 0 0 0 0 0 0 0 0 0 0
0 0 0 0 0 0 0 0 0 0 0 0 0 0 0 0 0 0 0 0 0 0 0 0 0 0 0 0 0 0 0 0 0 0 0 0 0 0 0 0 0 0 0 0 0 0 0 0 0
0 0 0 0 0 0 0 0 0 0 0 0 0 0 0 0 0 0 0 0 0 0 0 0 0 0 0 0 0 0 0 0 0 0 0 0 0 0 0 0 0 0 0 0 0 0 0 0 0
0 0 0 0 0 0 0 0 0 0 0 0 0 0 0 0 0 0 0 0 0 0 0 0 0 0 0 0 0 0 0 0 0 0 0 0 0 0 0 0 0 0 0 0 0 0 0 0 0
0 0 0 0 0 0 0 0 0 0 0 0 0 0 0 0 0 0 0 0 0 0 0 0 0 0 0 0 0 0 0 0 0 0 0 0 0 0 0 0 0 0 0 0 0 0 0 0 0
0 0 0 0 0 0 0 0 0 0 0 0 0 0 0 0 0 0 0 0 0 0 0 0 0 0 0 0 0 0 0 0 0 0 0 0 0 0 0 0 0 0 0 0 0 0 0 0 0
0 0 0 0 0 0 0 0 0 0 0 0 0 0 0 0 0 0 0 0 0 0 0 0 0 0 0 0 0 0 0 0 0 0 0 0 0 0 0 0 0 0 0 0 0 0 0 0 0
0 0 0 0 0 0 0 0 0 0 0 0 0 0 0 0 0 0 0 0 0 0 0 0 0 0 0 0 0 0 0 0 0 0 0 0 0 0 0 0 0 0 0 0 0 0 0 0 0
0 0 0 0 0 0 0 0 0 0 0 0 0 0 0 0 0 0 0 0 0 0 0 0 0 0 0 0 0 0 0 0 0 0 0 0 0 0 0 0 0 0 0 0 0 0 0 0 0
0 0 0 0 0 0 0 0 0 0 0 0 0 0 0 0 0 0 0 0 0 0 0 0 0 0 0 0 0 0 0 0 0 0 0 0 0 0 0 0 0 0 0 0 0 0 0 0 0
0 0 0 0 0 0 0 0 0 0 0 0 0 0 0 0 0 0 0 0 0 0 0 0 0 0 0 0 0 0 0 0 0 0 0 0 0 0 0 0 0 0 0 0 0 0 0 0 0
0 0 0 0 0 0 0 0 0 0 0 0 0 0 0 0 0 0 0 0 0 0 0 0 0 0 0 0 0 0 0 0 0 0 0 0 0 0 0 0 0 0 0 0 0 0 0 0 0
0 0 0 0 0 0 0 0 0 0 0 0 0 0 0 0 0 0 0 0 0 0 0 0 0 0 0 0 0 0 0 0 0 0 0 0 0 0 0 0 0 0 0 0 0 0 0 0 0
0 0 0 0 0 0 0 0 0 0 0 0 0 0 0 0 0 0 0 0 0 0 0 0 0 0 0 0 0 0 0 0 0 0 0 0 0 0 0 0 0 0 0 0 0 0 0 0 0
0 0 0 0 0 0 0 0 0 0 0 0 0 0 0 0 0 0 0 0 0 0 0 0 0 0 0 0 0 0 0 0 0 0 0 0 0 0 0 0 0 0 0 0 0 0 0 0 0
0 0 0 0 0 0 0 0 0 0 0 0 0 0 0 0 0 0 0 0 0 0 0 0 0 0 0 0 0 0 0 0 0 0 0 0 0 0 0 0 0 0 0 0 0 0 0 0 0
0 0 0 0 0 0 0 0 0 0 0 0 0 0 0 0 0 0 0 0 0 0 0 0 0 0 0 0 0 0 0 0 0 0 0 0 0 0 0 0 0 0 0 0 0 0 0 0 0
0 0 0 0 0 0 0 0 0 0 0 0 0 0 0 0 0 0 0 0 0 0 0 0 0 0 0 0 0 0 0 0 0 0 0 0 0 0 0 0 0 0 0 0 0 0 0 0 0
0 0 0 0 0 0 0 0 0 0 0 0 0 0 0 0 0 0 0 0 0 0 0 0 0 0 0 0 0 0 0 0 0 0 0 0 0 0 0 0 0 0 0 0 0 0 0 0 0
0 0 0 0 0 0 0 0 0 0 0 0 0 0 0 0 0 0 0 0 1 1 1 0 0 0 0 0 0 0 0 0 0 0 0 0 0 0 0 0 0 0 0 0 0 0 0 0 0
0 0 0 0 0 0 0 0 0 0 0 0 0 0 0 0 1 1 1 1 1 1 1 0 0 0 0 0 0 0 0 0 0 0 0 0 0 0 0 0 0 0 0 0 0 0 0 0 0
0 0 0 0 0 0 0 0 0 0 0 0 0 0 0 1 1 1 1 1 1 1 1 1 0 0 0 0 0 0 0 0 0 0 0 0 0 0 0 0 0 0 0 0 0 0 0 0 0
0 0 0 0 0 0 0 0 0 0 0 0 0 0 0 1 1 1 1 1 1 1 1 1 0 0 0 0 0 0 0 0 0 0 0 0 0 0 0 0 0 0 0 0 0 0 0 0 0
0 0 0 0 0 0 0 0 0 0 0 0 0 0 0 1 1 1 1 1 1 1 1 1 0 0 0 0 0 0 0 0 0 0 0 0 0 0 0 0 0 0 0 0 0 0 0 0 0
0 0 0 0 0 0 0 0 0 0 0 0 0 0 0 1 1 1 1 1 1 1 1 1 0 0 0 0 0 0 0 0 0 0 0 0 0 0 0 0 0 0 0 0 0 0 0 0 0
0 0 0 0 0 0 0 0 0 0 0 0 0 0 0 1 1 1 1 1 1 1 1 1 1 0 0 0 0 0 0 0 0 0 0 0 0 0 0 0 0 0 0 0 0 0 0 0 0
Wind_Speed
8 6 3 1 1 3 2 2 4 6 5 6 9 9 8 6 5 5 2 9 10 7 6 8 11 11 11 11 11 11 11 11 11 11 11 11 12 12 12 12 12 11 11 11 11 10 10 10 11
5 5 2 1 3 3 2 3 7 7 8 9 9 10 9 7 6 7 5 9 9 8 6 7 11 11 11 11 10 11 11 11 11 11 10 10 11 11 11 11 11 10 10 10 10 10 10 10 10
5 3 1 2 1 3 4 5 8 8 8 7 6 6 6 5 5 4 6 11 8 6 5 7 12 11 11 10 10 10 11 11 11 10 10 10 10 11 11 10 10 9 9 10 10 10 10 9 9
2 1 1 2 2 2 6 7 10 10 8 8 8 7 5 4 4 7 10 11 9 6 5 7 11 11 11 10 10 10 10 10 10 10 9 9 9 10 10 9 8 8 9 10 10 10 9 9 8
1 2 3 2 2 2 6 9 10 9 6 8 9 7 5 4 9 11 10 10 9 6 4 6 10 10 10 10 10 10 10 10 9 9 9 8 9 9 9 9 8 8 9 9 10 10 9 8 8
1 2 3 2 3 4 5 9 12 12 12 10 9 7 4 5 9 9 9 8 8 7 5 5 9 10 10 10 9 9 9 9 9 8 8 8 8 8 8 8 8 7 8 9 9 9 8 8 7
2 2 2 3 4 5 6 7 10 10 10 6 7 6 4 4 7 8 7 8 7 7 5 3 4 6 9 9 9 9 9 8 8 8 7 7 7 8 8 7 7 6 7 8 8 8 8 7 7
4 3 1 1 4 4 5 5 8 10 8 8 6 7 6 6 7 8 7 6 6 5 5 4 3 3 4 4 8 8 8 8 8 7 7 7 7 6 7 6 7 7 7 8 8 8 8 8 7
2 3 1 2 4 5 6 8 5 6 8 5 4 6 9 10 10 9 6 5 5 5 4 4 3 3 3 3 6 6 7 7 6 5 6 4 2 2 3 5 6 7 8 9 9 9 8 7 7
4 3 5 4 4 6 8 9 7 6 8 8 9 9 10 10 10 9 8 7 5 5 4 4 4 3 3 4 3 2 3 3 3 2 2 1 1 1 2 4 6 7 7 8 9 8 7 5 3
3 4 3 3 4 6 8 7 6 9 7 10 13 12 10 9 8 8 7 7 7 6 6 5 4 3 3 2 3 2 1 2 2 3 3 2 2 1 1 1 2 3 4 4 5 5 3 3 3
3 1 3 3 4 6 7 6 6 6 8 11 13 13 10 9 8 8 7 6 6 6 5 5 4 3 3 3 3 2 2 2 2 2 3 2 2 1 1 1 1 1 1 2 3 3 4 3 3
3 2 2 3 4 6 8 8 8 8 11 11 12 12 10 9 7 6 6 6 6 5 4 4 4 3 3 3 2 3 2 2 2 2 3 3 3 2 2 1 1 1 1 2 3 3 4 3 3
1 2 2 2 3 7 11 8 7 9 12 12 11 9 9 9 8 7 7 6 5 5 5 4 3 3 3 2 2 2 2 2 2 2 3 4 3 3 2 1 1 1 2 2 3 3 3 3 3
2 4 3 0 3 6 10 7 6 11 12 12 11 10 9 8 8 8 8 7 6 6 5 4 4 3 3 2 2 2 2 2 2 2 3 3 3 3 3 2 1 1 2 3 3 3 3 3 3
3 4 1 4 2 5 9 5 6 10 12 10 10 10 9 7 8 8 8 7 6 6 5 4 4 4 3 2 2 2 2 2 2 2 2 3 3 3 3 2 1 2 2 3 3 3 3 2 2
2 1 2 3 2 3 6 7 9 9 11 10 9 9 9 8 7 8 8 8 7 7 6 5 4 4 3 2 2 2 2 2 2 2 2 3 3 3 3 2 1 2 3 2 3 3 3 3 2
3 2 2 3 2 4 4 6 10 10 11 10 9 9 9 9 8 8 8 8 7 6 6 5 4 3 3 2 2 2 2 1 1 2 2 3 2 3 3 2 2 3 3 2 3 3 3 3 3
4 3 3 4 3 4 5 6 10 9 9 9 8 9 9 9 7 8 8 8 7 6 6 5 4 3 2 2 1 2 1 1 1 1 3 3 3 3 3 2 2 3 3 3 3 3 3 2 3
3 3 3 2 2 4 4 3 5 9 11 11 12 11 10 8 7 8 7 7 8 7 6 5 4 4 3 2 2 2 2 1 1 1 2 2 3 3 3 3 3 3 3 3 3 3 2 2 2
3 5 5 4 1 4 5 2 2 4 5 7 10 11 11 12 11 10 8 8 8 8 7 6 5 4 3 3 2 2 2 2 2 2 1 1 3 3 3 3 3 3 3 3 2 2 3 2 1
4 6 6 4 3 1 4 1 5 4 4 7 9 10 11 11 10 10 9 9 9 8 7 6 5 4 3 3 3 4 3 2 1 1 1 2 2 3 3 4 3 3 2 2 2 2 2 3 1
5 3 3 3 3 2 1 3 6 2 4 7 9 11 12 12 12 11 11 11 9 8 7 6 5 4 4 4 4 4 3 2 2 2 3 2 2 2 3 3 3 3 2 2 2 2 1 2 2
2 4 4 5 5 1 4 4 5 5 10 8 9 10 12 12 12 11 10 9 8 8 7 6 6 4 4 4 4 5 5 4 3 3 2 1 1 1 2 3 3 2 2 2 2 2 2 1 2
4 6 4 5 4 4 2 3 7 8 8 10 11 11 11 12 12 11 11 10 9 9 8 7 7 5 4 5 5 5 5 5 5 4 3 3 2 2 2 3 2 2 2 2 2 2 1 2 2
3 9 8 5 4 4 1 2 6 5 5 7 8 9 11 11 11 12 13 12 11 11 9 8 7 6 5 5 4 4 4 4 3 3 3 3 3 3 3 3 3 2 2 2 2 1 1 1 2
3 3 8 7 2 1 2 2 4 2 3 4 6 7 9 11 12 12 13 12 11 11 10 10 9 7 6 6 5 4 4 4 4 3 3 3 2 3 3 3 3 3 2 2 2 1 2 2 2
6 6 5 5 4 1 1 2 4 4 3 3 4 7 8 9 11 11 12 12 12 11 10 9 9 8 7 6 5 5 4 4 4 4 4 3 3 3 3 3 3 3 2 2 2 2 2 2 1
1 2 5 4 6 7 2 6 6 9 7 6 5 7 9 10 11 11 11 10 10 9 8 8 7 7 6 6 5 4 4 4 4 4 4 4 3 4 4 3 3 3 2 3 3 2 2 2 1
5 5 7 5 2 4 4 6 4 7 6 5 5 5 7 9 9 10 10 9 9 9 8 8 8 7 6 6 5 5 4 4 4 4 4 4 4 4 4 3 3 3 2 2 3 3 3 3 2
Wind_Direction
173 164 165 200 37 51 85 93 98 85 71 67 76 80 77 69 98 125 158 140 143 146 151 145 134 129 125 120 118 116 114 112 110 111 114 118 121 125 127 129 129 129 132 139 137 138 141 144 146
165 163 162 31 65 76 72 102 91 96 121 109 83 83 79 71 83 112 127 144 143 144 148 146 137 133 129 125 123 120 119 118 116 115 117 121 124 128 131 132 132 134 135 138 138 140 142 146 146
169 190 155 54 69 140 122 116 112 109 109 101 88 65 69 94 101 122 146 146 138 137 145 148 141 137 131 129 128 126 124 123 121 120 120 122 128 131 134 136 138 141 143 145 146 145 142 145 149
158 121 46 65 99 151 135 134 121 108 86 80 92 71 65 88 110 131 134 136 132 134 143 150 145 141 136 134 133 131 129 128 127 127 126 128 133 136 136 137 141 146 148 148 149 148 144 146 153
110 77 50 57 88 111 118 122 116 104 90 89 92 97 86 79 110 122 129 135 135 137 142 151 146 144 141 139 138 137 135 135 134 134 135 135 134 137 139 144 146 151 151 151 150 150 146 146 152
83 75 70 84 98 96 100 110 105 101 107 106 102 104 102 121 121 129 133 131 139 141 144 152 151 148 147 145 143 143 142 143 143 143 144 142 139 142 146 151 153 157 158 155 153 153 154 152 147
131 103 146 134 109 102 108 112 111 118 117 119 123 103 116 138 139 138 131 126 134 140 139 145 155 152 150 153 153 153 151 152 153 152 151 150 147 147 151 154 159 163 164 163 161 163 165 159 157
173 108 122 148 120 117 121 104 121 123 115 128 124 125 151 168 144 131 122 118 127 135 143 151 157 143 142 155 163 165 163 161 159 156 156 155 155 157 161 163 169 174 174 171 171 175 173 170 172
147 91 203 190 141 138 124 108 106 100 113 119 108 132 152 148 135 128 121 116 130 138 147 147 149 149 153 161 169 170 169 168 165 162 160 153 146 157 165 175 180 181 182 183 183 184 180 180 183
138 145 207 190 159 148 131 120 124 101 104 100 101 115 133 135 138 140 144 150 150 155 163 162 164 166 165 169 161 170 169 168 169 164 160 148 146 162 170 184 186 187 189 192 192 189 187 184 174
154 168 184 160 152 134 127 121 111 118 122 141 142 145 144 138 139 144 150 156 161 163 166 166 163 168 174 167 166 171 164 163 167 169 168 161 148 145 165 176 191 196 195 194 190 187 179 168 160
115 154 154 157 140 129 130 123 108 122 146 148 144 147 146 145 150 154 152 155 152 146 151 153 157 159 167 161 163 167 161 159 163 168 167 154 142 144 154 171 166 176 192 183 176 168 167 171 175
105 116 121 154 133 128 115 115 115 116 130 134 139 143 146 151 153 149 146 143 136 141 150 148 143 143 150 147 162 154 157 161 165 161 163 152 149 154 152 161 143 150 139 137 139 148 155 165 173
161 87 85 130 124 126 115 108 104 131 137 138 143 148 150 152 148 140 138 137 136 140 149 150 135 129 125 128 138 148 154 157 152 158 163 154 150 153 150 150 140 140 133 131 134 144 148 154 147
93 76 26 112 129 127 105 82 121 145 144 145 151 152 152 154 149 147 150 148 144 143 143 142 139 119 110 119 141 143 156 153 152 166 163 151 144 148 144 139 140 149 127 120 115 114 118 113 115
51 69 65 272 141 136 110 135 160 157 149 154 156 158 158 160 156 154 151 146 141 140 141 143 135 114 111 118 123 131 142 148 155 159 155 152 148 144 138 134 144 135 117 117 119 114 107 99 97
35 127 203 263 233 146 120 156 175 172 158 159 164 162 159 158 156 156 154 150 146 145 141 136 125 125 126 123 113 119 123 134 142 140 149 156 153 145 130 130 136 125 115 116 127 119 123 121 114
224 200 215 220 219 124 130 162 168 176 168 167 166 163 161 162 166 164 156 150 147 143 137 135 130 132 125 110 84 80 85 93 114 133 142 147 147 139 125 129 128 122 117 116 116 124 125 138 137
198 194 214 229 175 125 156 163 170 174 170 167 168 169 168 170 167 157 152 150 143 139 137 138 134 142 130 117 114 113 120 131 124 134 138 143 135 131 126 127 120 118 119 124 128 126 124 127 122
189 173 215 242 178 136 145 170 178 176 180 176 172 175 173 165 156 156 154 153 150 151 150 147 148 155 151 148 149 144 144 143 135 121 116 128 125 127 128 129 127 120 116 110 112 121 122 136 140
237 187 201 198 152 85 99 20 219 198 179 177 176 175 173 171 167 164 161 158 154 156 160 159 159 154 150 139 116 101 75 63 62 82 107 124 129 126 121 128 123 121 127 132 136 134 137 148 157
245 218 193 176 116 193 125 188 260 213 198 186 182 175 176 174 167 166 164 163 166 168 164 157 157 151 153 145 136 134 131 138 161 143 130 119 125 131 131 131 128 129 130 138 149 135 144 144 154
220 205 170 154 125 97 96 141 267 186 201 202 186 180 177 174 170 171 170 169 168 165 162 158 152 152 154 150 147 139 135 141 131 112 107 109 121 134 135 134 130 129 138 151 150 130 127 143 156
166 72 43 50 69 38 227 157 254 216 203 192 184 182 178 172 171 172 169 161 162 164 162 157 151 156 155 150 147 144 146 145 133 131 135 134 130 129 135 135 133 146 156 167 166 151 146 156 157
82 88 41 6 14 255 235 144 245 231 199 182 181 181 178 172 172 171 168 168 169 169 168 163 160 165 164 156 157 159 157 155 162 167 164 160 154 157 165 152 150 158 167 168 162 150 156 163 170
186 137 152 188 216 268 337 207 260 234 191 175 175 173 173 171 174 177 177 175 175 172 168 164 165 169 168 166 170 171 166 167 175 178 168 171 175 180 171 162 166 168 169 173 162 156 181 156 162
172 171 168 145 163 107 287 285 314 52 99 138 156 160 173 177 178 179 177 175 175 173 172 171 168 168 170 171 172 174 178 175 174 170 165 172 178 171 166 169 172 179 178 176 160 162 192 171 174
172 159 103 117 139 144 278 253 224 224 204 170 165 173 179 181 176 177 176 175 177 177 173 169 168 170 173 174 177 177 181 177 170 160 168 176 178 173 166 171 175 176 178 172 163 171 186 165 187
177 114 117 122 147 146 191 264 226 200 202 182 185 180 166 167 173 175 175 172 170 165 161 163 169 169 173 177 176 168 171 174 170 171 179 182 178 171 171 172 173 172 174 171 168 182 172 171 188
176 178 145 142 189 148 156 259 263 185 190 178 178 173 164 160 159 161 158 152 154 159 164 169 173 175 178 176 169 169 166 164 169 178 184 179 177 175 173 171 175 184 180 174 174 187 185 175 183